Regional Weather Roundup
Issued by NWS Upton, NY

Current Version | Previous Version | Graphics & Text | Print | Product List | Glossary Off
Versions: 1 2 3 4 5 6 7 8 9 10 11 12 13 14 15 16 17 18 19 20 21 22 23 24 25 26 27 28 29 30 31 32 33 34 35 36 37 38 39 40 41 42 43 44 45 46 47 48 49 50
859 ASUS41 KOKX 270304 RWROKX REGIONAL WEATHER ROUNDUP NATIONAL WEATHER SERVICE NEW YORK NY 1100 PM EDT TUE JUL 26 2016 NOTE: "FAIR" INDICATES FEW OR NO CLOUDS BELOW 12,000 FEET WITH NO SIGNIFICANT WEATHER AND/OR OBSTRUCTIONS TO VISIBILITY. NYZ071-072-176-178-NJZ106-104-270400- NEW YORK CITY METRO AREA CITY SKY/WX TMP DP RH WIND PRES REMARKS Central Park MOCLDY 82 60 47 CALM 29.95R LaGuardia APRT MOCLDY 84 62 47 N8 29.91R Kennedy INTL MOCLDY 83 59 44 N7 29.92S Newark/Liberty MOCLDY 84 60 44 N8 29.92R Bronx Bot Gard N/A 79 61 53 NW3 29.92F Wall St Helipt PTCLDY 82 63 51 CALM 29.93R Teterboro PTCLDY 80 59 48 NW3 29.91R $$ NYZ177-179-078>081-270400- LONG ISLAND NEW YORK CITY SKY/WX TMP DP RH WIND PRES REMARKS Farmingdale PTCLDY 81 62 52 NW5G30 29.92R MacArthur/ISP CLOUDY 76 65 68 NW6 29.91R Shirley PTCLDY 73 64 73 CALM 29.91S Riverhead NOT AVBL Westhampton PTCLDY 68 61 78 CALM 29.92S Southhampton N/A 77 66 69 NW2 29.86S Bridgehampton N/A 75 64 69 CALM 29.90R East Hampton FAIR 71 64 79 CALM 29.89S Montauk N/A 76 65 68 W6 29.90S $$ NYZ052-065-067-270400- HUDSON VALLEY CITY SKY/WX TMP DP RH WIND PRES REMARKS White Plains PTCLDY 75 66 73 NW5 29.93S Newburgh PTCLDY 72 64 78 CALM 29.96 Montgomery MOCLDY 70 64 81 CALM 29.95R Poughkeepsie CLOUDY 72 64 76 CALM 29.92S Albany PTCLDY 75 59 57 NW9 29.93S $$ NJZ001-105-106-008-010-013-015-019>022-104-270400- NEW JERSEY CITY SKY/WX TMP DP RH WIND PRES REMARKS Newark/Liberty MOCLDY 84 60 44 N8 29.92R Teterboro PTCLDY 80 59 48 NW3 29.91R Caldwell PTCLDY 77 63 61 CALM 29.94R Morristown MOCLDY 68 63 83 CALM 29.93S Somerville PTCLDY 74 69 85 CALM 29.91R Linden FAIR 82 59 44 CALM 29.94R Sussex PTCLDY 68 66 93 CALM 29.95S Abdover N/A 68 65 90 CALM 29.96R Trenton PTCLDY 79 66 64 N5 29.92R Millville CLOUDY 76 73 91 CALM 29.92F Atlantic City PTCLDY 80 71 74 SW5 29.92F Wrightstown NOT AVBL Toms River MOCLDY 74 70 87 CALM 29.92F Belmar MOCLDY 79 68 69 NW5 29.93S $$ PAZ047>061-062-071-270400- EASTERN PENNSYLVANIA CITY SKY/WX TMP DP RH WIND PRES REMARKS Philadelphia CLOUDY 83 73 72 W6 29.92F Allentown CLOUDY 76 67 73 CALM 29.94R Scranton CLOUDY 72 61 68 E6 29.98R $$ CTZ002-004>006-009-010-012-RIZ004-006-007-MAZ004-011-015-270400- SOUTHERN NEW ENGLAND IN CT CITY SKY/WX TMP DP RH WIND PRES REMARKS Bradley INTL PTCLDY 76 61 59 NW5 29.90S Hartford CLOUDY 83 61 47 NW7 29.90S Danbury PTCLDY 69 63 81 SW3 29.95R Wtrbury/Oxford N/A 70 59 68 N6 29.95F Bridgeport PTCLDY 79 62 56 NW7 29.91R Meriden PTCLDY 72 64 76 CALM 29.91S New Haven PTCLDY 78 63 59 NW5 29.91S Chester FAIR 77 61 57 N5 29.92S Groton MOCLDY 77 61 57 NW7 29.89R Wilimantic NOT AVBL IN RI CITY SKY/WX TMP DP RH WIND PRES REMARKS Providence PTCLDY 81 60 48 NW7 29.88S Block Island CLOUDY 77 63 61 NW6 29.89S Westerly CLOUDY 79 60 52 NW5 29.89S IN MA CITY SKY/WX TMP DP RH WIND PRES REMARKS Boston PTCLDY 82 60 47 NW10 29.88R Worchester CLEAR 72 59 63 NW8 29.94S Westfield CLEAR 76 61 59 NW5 29.91S Provincetown CLEAR 69 65 86 CALM 29.87R Nantucket MOCLDY 73 68 84 W6 29.85S $$ ANZ330-335-338-340-345-350-353-355-270400- COASTAL MARINE OBSERVATIONS STATION/POSITION TIME SKY/WX TEMP WIND PRES VSBY WAVE AIR SEA DIR/SP/G HT/PER (UTC) (F) (DEG/KT/KT) (MB) (MI) (FT/S) NY HARB ENTRANCE 0150 79 76 300/ 6/ 8 1012.4 2/ 7 20S FIRE ISLAND 0150 78 76 270/ 6/ 8 1012.2 3/ 7 GREAT SOUTH BAY 0200 82 81 350/ 8/ 8 N/A 23 SSW MONTAUK P 0150 74 70 250/ 10/ 12 1012.7 3/ 7 15 E BARNEGAT LI 0222 77 N/A 3/ 7 HUDSON CANYON 0150 79 78 1012.6 3/ 7 KINGS POINT 0200 80 72 N/A EXECUTION ROCKS 0200 79 320/ 6/ 8 N/A CENTRAL LI SOUND 0200 78 74 280/ 8/ 8 N/A 1 EASTERN LI SOUND 0200 73 67 300/ 4/ 6 N/A ROBBINS REEF 0200 85 N/A $$ >>>>>>>>>>>>>>>>>>>>>>>>>>>> KEY <<<<<<<<<<<<<<<<<<<<<<<<<<< > < > SKY/WX - Sky Condition/Present Weather < > TMP - Temperature in Fahrenheit < > DP - Dew Point in Fahrenheit < > RH - Relative Humidity in Percent < > WIND - Direction (from) and Speed in MPH < > PRES - Mean Sea Level Pressure (inches of Hg) < > WCI - Wind Chill Index < > VSB - VISIBILITY IN MILES < > HX - HEAT INDEX < > TC - TEMPERATURE IN CELSIUS < > VRB - VARIABLE WIND DIRECTION < > < >>>>>>>>>>>>>>>>>>>>>>>>>>>> KEY <<<<<<<<<<<<<<<<<<<<<<<<<<<

USA.gov is the U.S. government's official web portal to all federal, state and local government web resources and services.